Location: Grandview
(34.8900°N, 117.1058°W)
Time: 09:07:26
(UTC-07:00)

Tiangong 2 - Pass Details

Date: 14 October 2017
Orbit: 388 x 392 km, 42.8° (Epoch: 19 October)

Event Time Altitude Azimuth Distance (km) Brightness Sun altitude
Exits shadow 05:03:10 18° 20° (NNE) 1,052 3.5 -23.4°
Drops below altitude 10° 05:04:37 10° 44° (NE) 1,420 4.6 -23.1°
Sets 05:07:03 0° 62° (ENE) 2,276 6.1 -22.6°
